owner,sensor,date,latitude,longitude,vertical_datum,wind_speed,wind_to_direction,wind_speed_of_gust,qcFlag 
DISL,ioos:station:DISL:MBLA:1,2007-08-01T00:00:00Z,30.4367,-88.0117,14.2,4.6,301.0,99.0,'11111222,11111222,11144222' 
DISL,ioos:station:DISL:MBLA:1,2007-08-01T00:30:00Z,30.4367,-88.0117,14.2,6.0,319.0,99.0,'11111222,11111222,11144222' 
DISL,ioos:station:DISL:MBLA:1,2007-08-01T01:00:00Z,30.4367,-88.0117,14.2,6.0,308.0,99.0,'11111222,11111222,11144222' 
DISL,ioos:station:DISL:MBLA:1,2007-08-01T01:30:00Z,30.4367,-88.0117,14.2,6.0,319.0,99.0,'11111222,11111222,11144222' 
DISL,ioos:station:DISL:MBLA:1,2007-08-01T02:00:00Z,30.4367,-88.0117,14.2,6.0,312.0,99.0,'11111222,11111222,11144222' 
DISL,ioos:station:DISL:MBLA:1,2007-08-01T02:30:00Z,30.4367,-88.0117,14.2,2.2,303.0,99.0,'11111222,11111222,11144222' 
DISL,ioos:station:DISL:MBLA:1,2007-08-01T03:00:00Z,30.4367,-88.0117,14.2,1.6,303.0,99.0,'11111222,11111222,11144222' 
DISL,ioos:station:DISL:MBLA:1,2007-08-01T03:30:00Z,30.4367,-88.0117,14.2,1.3,276.0,99.0,'11111222,11111222,11144222' 
DISL,ioos:station:DISL:MBLA:1,2007-08-01T04:00:00Z,30.4367,-88.0117,14.2,3.4,303.0,99.0,'11111222,11111222,11144222' 
DISL,ioos:station:DISL:MBLA:1,2007-08-01T04:30:00Z,30.4367,-88.0117,14.2,3.9,324.0,99.0,'11111222,11111222,11144222' 
DISL,ioos:station:DISL:MBLA:1,2007-08-01T05:00:00Z,30.4367,-88.0117,14.2,3.7,334.0,99.0,'11111222,11111222,11144222' 
DISL,ioos:station:DISL:MBLA:1,2007-08-01T05:30:00Z,30.4367,-88.0117,14.2,1.4,348.0,99.0,'11111222,11111222,11144222' 
DISL,ioos:station:DISL:MBLA:1,2007-08-01T06:00:00Z,30.4367,-88.0117,14.2,1.1,315.0,99.0,'11111222,11111222,11144222' 
DISL,ioos:station:DISL:MBLA:1,2007-08-01T06:30:00Z,30.4367,-88.0117,14.2,3.8,306.0,99.0,'11111222,11111222,11144222' 
DISL,ioos:station:DISL:MBLA:1,2007-08-01T07:00:00Z,30.4367,-88.0117,14.2,4.4,293.0,99.0,'11111222,11111222,11144222' 
DISL,ioos:station:DISL:MBLA:1,2007-08-01T07:30:00Z,30.4367,-88.0117,14.2,4.4,315.0,99.0,'11111222,11111222,11144222' 
DISL,ioos:station:DISL:MBLA:1,2007-08-01T08:00:00Z,30.4367,-88.0117,14.2,2.9,345.0,99.0,'11111222,11111222,11144222' 
DISL,ioos:station:DISL:MBLA:1,2007-08-01T08:30:00Z,30.4367,-88.0117,14.2,3.1,340.0,99.0,'11111222,11111222,11144222' 
DISL,ioos:station:DISL:MBLA:1,2007-08-01T09:00:00Z,30.4367,-88.0117,14.2,4.7,341.0,99.0,'11111222,11111222,11144222' 
DISL,ioos:station:DISL:MBLA:1,2007-08-01T09:30:00Z,30.4367,-88.0117,14.2,3.8,349.0,99.0,'11111222,11111222,11144222' 
DISL,ioos:station:DISL:MBLA:1,2007-08-01T10:00:00Z,30.4367,-88.0117,14.2,4.2,326.0,99.0,'11111222,11111222,11144222' 
DISL,ioos:station:DISL:MBLA:1,2007-08-01T10:30:00Z,30.4367,-88.0117,14.2,2.8,321.0,99.0,'11111222,11111222,11144222' 
DISL,ioos:station:DISL:MBLA:1,2007-08-01T11:00:00Z,30.4367,-88.0117,14.2,3.0,340.0,99.0,'11111222,11111222,11144222' 
DISL,ioos:station:DISL:MBLA:1,2007-08-01T11:30:00Z,30.4367,-88.0117,14.2,4.2,354.0,99.0,'11111222,11111222,11144222' 
DISL,ioos:station:DISL:MBLA:1,2007-08-01T12:00:00Z,30.4367,-88.0117,14.2,5.1,76.0,99.0,'11111222,11111222,11144222' 
DISL,ioos:station:DISL:MBLA:1,2007-08-01T12:30:00Z,30.4367,-88.0117,14.2,4.8,56.0,99.0,'11111222,11111222,11144222' 
DISL,ioos:station:DISL:MBLA:1,2007-08-01T13:00:00Z,30.4367,-88.0117,14.2,4.5,51.0,99.0,'11111222,11111222,11144222' 
DISL,ioos:station:DISL:MBLA:1,2007-08-01T13:30:00Z,30.4367,-88.0117,14.2,2.8,64.0,99.0,'11111222,11111222,11144222' 
DISL,ioos:station:DISL:MBLA:1,2007-08-01T14:00:00Z,30.4367,-88.0117,14.2,2.9,61.0,99.0,'11111222,11111222,11144222' 
DISL,ioos:station:DISL:MBLA:1,2007-08-01T14:30:00Z,30.4367,-88.0117,14.2,2.1,79.0,99.0,'11111222,11111222,11144222' 
DISL,ioos:station:DISL:MBLA:1,2007-08-01T15:00:00Z,30.4367,-88.0117,14.2,2.1,79.0,99.0,'11111222,11111222,11144222' 
DISL,ioos:station:DISL:MBLA:1,2007-08-01T15:30:00Z,30.4367,-88.0117,14.2,1.6,60.0,99.0,'11111222,11111222,11144222' 
DISL,ioos:station:DISL:MBLA:1,2007-08-01T16:00:00Z,30.4367,-88.0117,14.2,0.6,37.0,99.0,'11111222,11111222,11144222' 
DISL,ioos:station:DISL:MBLA:1,2007-08-01T16:30:00Z,30.4367,-88.0117,14.2,1.0,179.0,99.0,'11111222,11111222,11144222' 
DISL,ioos:station:DISL:MBLA:1,2007-08-01T17:00:00Z,30.4367,-88.0117,14.2,1.2,189.0,99.0,'11111222,11111222,11144222' 
DISL,ioos:station:DISL:MBLA:1,2007-08-01T17:30:00Z,30.4367,-88.0117,14.2,1.1,162.0,99.0,'11111222,11111222,11144222' 
DISL,ioos:station:DISL:MBLA:1,2007-08-01T18:00:00Z,30.4367,-88.0117,14.2,2.1,205.0,99.0,'11111222,11111222,11144222' 
DISL,ioos:station:DISL:MBLA:1,2007-08-01T18:30:00Z,30.4367,-88.0117,14.2,4.4,179.0,99.0,'11111222,11111222,11144222' 
DISL,ioos:station:DISL:MBLA:1,2007-08-01T19:00:00Z,30.4367,-88.0117,14.2,6.1,169.0,99.0,'11111222,11111222,11144222' 
DISL,ioos:station:DISL:MBLA:1,2007-08-01T19:30:00Z,30.4367,-88.0117,14.2,7.9,169.0,99.0,'11111222,11111222,11144222' 
DISL,ioos:station:DISL:MBLA:1,2007-08-01T20:00:00Z,30.4367,-88.0117,14.2,12.0,35.0,99.0,'11111222,11111222,11144222' 
DISL,ioos:station:DISL:MBLA:1,2007-08-01T20:30:00Z,30.4367,-88.0117,14.2,8.3,134.0,99.0,'11111222,11111222,11144222' 
DISL,ioos:station:DISL:MBLA:1,2007-08-01T21:00:00Z,30.4367,-88.0117,14.2,5.1,5.0,99.0,'11111222,11111222,11144222' 
DISL,ioos:station:DISL:MBLA:1,2007-08-01T21:30:00Z,30.4367,-88.0117,14.2,6.9,41.0,99.0,'11111222,11111222,11144222' 
DISL,ioos:station:DISL:MBLA:1,2007-08-01T22:00:00Z,30.4367,-88.0117,14.2,5.5,75.0,99.0,'11111222,11111222,11144222' 
DISL,ioos:station:DISL:MBLA:1,2007-08-01T22:30:00Z,30.4367,-88.0117,14.2,4.9,93.0,99.0,'11111222,11111222,11144222' 
DISL,ioos:station:DISL:MBLA:1,2007-08-01T23:00:00Z,30.4367,-88.0117,14.2,3.6,166.0,99.0,'11111222,11111222,11144222' 
DISL,ioos:station:DISL:MBLA:1,2007-08-01T23:30:00Z,30.4367,-88.0117,14.2,0.3,49.0,99.0,'11111222,11111222,11144222' 
DISL,ioos:station:DISL:MBLA:1,2007-08-02T00:00:00Z,30.4367,-88.0117,14.2,1.8,325.0,99.0,'11111222,11111222,11144222' 
DISL,ioos:station:DISL:MBLA:1,2007-08-02T00:30:00Z,30.4367,-88.0117,14.2,2.6,34.0,99.0,'11111222,11111222,11144222' 
DISL,ioos:station:DISL:MBLA:1,2007-08-02T01:00:00Z,30.4367,-88.0117,14.2,1.2,68.0,99.0,'11111222,11111222,11144222' 
DISL,ioos:station:DISL:MBLA:1,2007-08-02T01:30:00Z,30.4367,-88.0117,14.2,2.4,71.0,99.0,'11111222,11111222,11144222' 
DISL,ioos:station:DISL:MBLA:1,2007-08-02T02:00:00Z,30.4367,-88.0117,14.2,2.4,100.0,99.0,'11111222,11111222,11144222' 
DISL,ioos:station:DISL:MBLA:1,2007-08-02T02:30:00Z,30.4367,-88.0117,14.2,4.6,47.0,99.0,'11111222,11111222,11144222' 
DISL,ioos:station:DISL:MBLA:1,2007-08-02T03:00:00Z,30.4367,-88.0117,14.2,4.1,85.0,99.0,'11111222,11111222,11144222' 
DISL,ioos:station:DISL:MBLA:1,2007-08-02T03:30:00Z,30.4367,-88.0117,14.2,4.9,50.0,99.0,'11111222,11111222,11144222' 
DISL,ioos:station:DISL:MBLA:1,2007-08-02T04:00:00Z,30.4367,-88.0117,14.2,5.2,38.0,99.0,'11111222,11111222,11144222' 
DISL,ioos:station:DISL:MBLA:1,2007-08-02T04:30:00Z,30.4367,-88.0117,14.2,5.1,58.0,99.0,'11111222,11111222,11144222' 
DISL,ioos:station:DISL:MBLA:1,2007-08-02T05:00:00Z,30.4367,-88.0117,14.2,4.8,42.0,99.0,'11111222,11111222,11144222' 
DISL,ioos:station:DISL:MBLA:1,2007-08-02T05:30:00Z,30.4367,-88.0117,14.2,5.7,62.0,99.0,'11111222,11111222,11144222' 
DISL,ioos:station:DISL:MBLA:1,2007-08-02T06:00:00Z,30.4367,-88.0117,14.2,6.1,50.0,99.0,'11111222,11111222,11144222' 
DISL,ioos:station:DISL:MBLA:1,2007-08-02T06:30:00Z,30.4367,-88.0117,14.2,6.3,49.0,99.0,'11111222,11111222,11144222' 
DISL,ioos:station:DISL:MBLA:1,2007-08-02T07:00:00Z,30.4367,-88.0117,14.2,5.3,55.0,99.0,'11111222,11111222,11144222' 
DISL,ioos:station:DISL:MBLA:1,2007-08-02T07:30:00Z,30.4367,-88.0117,14.2,5.5,49.0,99.0,'11111222,11111222,11144222' 
DISL,ioos:station:DISL:MBLA:1,2007-08-02T08:00:00Z,30.4367,-88.0117,14.2,7.2,65.0,99.0,'11111222,11111222,11144222' 
DISL,ioos:station:DISL:MBLA:1,2007-08-02T08:30:00Z,30.4367,-88.0117,14.2,7.3,62.0,99.0,'11111222,11111222,11144222' 
DISL,ioos:station:DISL:MBLA:1,2007-08-02T09:00:00Z,30.4367,-88.0117,14.2,8.8,58.0,99.0,'11111222,11111222,11144222' 
DISL,ioos:station:DISL:MBLA:1,2007-08-02T09:30:00Z,30.4367,-88.0117,14.2,7.6,72.0,99.0,'11111222,11111222,11144222' 
DISL,ioos:station:DISL:MBLA:1,2007-08-02T10:00:00Z,30.4367,-88.0117,14.2,6.8,59.0,99.0,'11111222,11111222,11144222' 
DISL,ioos:station:DISL:MBLA:1,2007-08-02T10:30:00Z,30.4367,-88.0117,14.2,7.3,57.0,99.0,'11111222,11111222,11144222' 
DISL,ioos:station:DISL:MBLA:1,2007-08-02T11:00:00Z,30.4367,-88.0117,14.2,8.2,56.0,99.0,'11111222,11111222,11144222' 
DISL,ioos:station:DISL:MBLA:1,2007-08-02T11:30:00Z,30.4367,-88.0117,14.2,8.9,57.0,99.0,'11111222,11111222,11144222' 
DISL,ioos:station:DISL:MBLA:1,2007-08-02T12:00:00Z,30.4367,-88.0117,14.2,7.7,63.0,99.0,'11111222,11111222,11144222' 
DISL,ioos:station:DISL:MBLA:1,2007-08-02T12:30:00Z,30.4367,-88.0117,14.2,7.6,59.0,99.0,'11111222,11111222,11144222' 
DISL,ioos:station:DISL:MBLA:1,2007-08-02T13:00:00Z,30.4367,-88.0117,14.2,6.5,65.0,99.0,'11111222,11111222,11144222' 
DISL,ioos:station:DISL:MBLA:1,2007-08-02T13:30:00Z,30.4367,-88.0117,14.2,6.7,64.0,99.0,'11111222,11111222,11144222' 
DISL,ioos:station:DISL:MBLA:1,2007-08-02T14:00:00Z,30.4367,-88.0117,14.2,6.6,60.0,99.0,'11111222,11111222,11144222' 
DISL,ioos:station:DISL:MBLA:1,2007-08-02T14:30:00Z,30.4367,-88.0117,14.2,5.1,63.0,99.0,'11111222,11111222,11144222' 
DISL,ioos:station:DISL:MBLA:1,2007-08-02T15:00:00Z,30.4367,-88.0117,14.2,5.3,67.0,99.0,'11111222,11111222,11144222' 
DISL,ioos:station:DISL:MBLA:1,2007-08-02T15:30:00Z,30.4367,-88.0117,14.2,5.0,88.0,99.0,'11111222,11111222,11144222' 
DISL,ioos:station:DISL:MBLA:1,2007-08-02T16:00:00Z,30.4367,-88.0117,14.2,5.3,75.0,99.0,'11111222,11111222,11144222' 
DISL,ioos:station:DISL:MBLA:1,2007-08-02T16:30:00Z,30.4367,-88.0117,14.2,4.8,88.0,99.0,'11111222,11111222,11144222' 
DISL,ioos:station:DISL:MBLA:1,2007-08-02T17:00:00Z,30.4367,-88.0117,14.2,3.9,84.0,99.0,'11111222,11111222,11144222' 
DISL,ioos:station:DISL:MBLA:1,2007-08-02T17:30:00Z,30.4367,-88.0117,14.2,3.4,74.0,99.0,'11111222,11111222,11144222' 
DISL,ioos:station:DISL:MBLA:1,2007-08-02T18:00:00Z,30.4367,-88.0117,14.2,3.4,52.0,99.0,'11111222,11111222,11144222' 
DISL,ioos:station:DISL:MBLA:1,2007-08-02T18:30:00Z,30.4367,-88.0117,14.2,3.4,34.0,99.0,'11111222,11111222,11144222' 
DISL,ioos:station:DISL:MBLA:1,2007-08-02T19:00:00Z,30.4367,-88.0117,14.2,3.0,18.0,99.0,'11111222,11111222,11144222' 
DISL,ioos:station:DISL:MBLA:1,2007-08-02T19:30:00Z,30.4367,-88.0117,14.2,4.1,40.0,99.0,'11111222,11111222,11144222' 
DISL,ioos:station:DISL:MBLA:1,2007-08-02T20:00:00Z,30.4367,-88.0117,14.2,3.6,34.0,99.0,'11111222,11111222,11144222' 
DISL,ioos:station:DISL:MBLA:1,2007-08-02T20:30:00Z,30.4367,-88.0117,14.2,3.7,28.0,99.0,'11111222,11111222,11144222' 
DISL,ioos:station:DISL:MBLA:1,2007-08-02T21:00:00Z,30.4367,-88.0117,14.2,4.5,39.0,99.0,'11111222,11111222,11144222' 
DISL,ioos:station:DISL:MBLA:1,2007-08-02T21:30:00Z,30.4367,-88.0117,14.2,3.6,27.0,99.0,'11111222,11111222,11144222' 
DISL,ioos:station:DISL:MBLA:1,2007-08-02T22:00:00Z,30.4367,-88.0117,14.2,3.8,44.0,99.0,'11111222,11111222,11144222' 
DISL,ioos:station:DISL:MBLA:1,2007-08-02T22:30:00Z,30.4367,-88.0117,14.2,5.5,188.0,99.0,'11111222,11111222,11144222' 
DISL,ioos:station:DISL:MBLA:1,2007-08-02T23:00:00Z,30.4367,-88.0117,14.2,5.2,194.0,99.0,'11111222,11111222,11144222' 
DISL,ioos:station:DISL:MBLA:1,2007-08-02T23:30:00Z,30.4367,-88.0117,14.2,5.6,190.0,99.0,'11111222,11111222,11144222' 
DISL,ioos:station:DISL:MBLA:1,2007-08-03T00:00:00Z,30.4367,-88.0117,14.2,5.4,181.0,99.0,'11111222,11111222,11144222' 
DISL,ioos:station:DISL:MBLA:1,2007-08-03T00:30:00Z,30.4367,-88.0117,14.2,10.2,104.0,99.0,'11111222,11111222,11144222' 
DISL,ioos:station:DISL:MBLA:1,2007-08-03T01:00:00Z,30.4367,-88.0117,14.2,6.1,123.0,99.0,'11111222,11111222,11144222' 
DISL,ioos:station:DISL:MBLA:1,2007-08-03T01:30:00Z,30.4367,-88.0117,14.2,12.1,105.0,99.0,'11111222,11111222,11144222' 
DISL,ioos:station:DISL:MBLA:1,2007-08-03T02:00:00Z,30.4367,-88.0117,14.2,8.5,124.0,99.0,'11111222,11111222,11144222' 
DISL,ioos:station:DISL:MBLA:1,2007-08-03T02:30:00Z,30.4367,-88.0117,14.2,7.5,132.0,99.0,'11111222,11111222,11144222' 
DISL,ioos:station:DISL:MBLA:1,2007-08-03T03:00:00Z,30.4367,-88.0117,14.2,8.9,127.0,99.0,'11111222,11111222,11144222' 
DISL,ioos:station:DISL:MBLA:1,2007-08-03T03:30:00Z,30.4367,-88.0117,14.2,8.6,130.0,99.0,'11111222,11111222,11144222' 
DISL,ioos:station:DISL:MBLA:1,2007-08-03T04:00:00Z,30.4367,-88.0117,14.2,7.6,141.0,99.0,'11111222,11111222,11144222' 
DISL,ioos:station:DISL:MBLA:1,2007-08-03T04:30:00Z,30.4367,-88.0117,14.2,3.8,138.0,99.0,'11111222,11111222,11144222' 
DISL,ioos:station:DISL:MBLA:1,2007-08-03T05:00:00Z,30.4367,-88.0117,14.2,2.4,125.0,99.0,'11111222,11111222,11144222' 
DISL,ioos:station:DISL:MBLA:1,2007-08-03T05:30:00Z,30.4367,-88.0117,14.2,1.4,64.0,99.0,'11111222,11111222,11144222' 
DISL,ioos:station:DISL:MBLA:1,2007-08-03T06:00:00Z,30.4367,-88.0117,14.2,3.7,20.0,99.0,'11111222,11111222,11144222' 
DISL,ioos:station:DISL:MBLA:1,2007-08-03T06:30:00Z,30.4367,-88.0117,14.2,4.6,17.0,99.0,'11111222,11111222,11144222' 
DISL,ioos:station:DISL:MBLA:1,2007-08-03T07:00:00Z,30.4367,-88.0117,14.2,4.6,49.0,99.0,'11111222,11111222,11144222' 
DISL,ioos:station:DISL:MBLA:1,2007-08-03T07:30:00Z,30.4367,-88.0117,14.2,5.3,46.0,99.0,'11111222,11111222,11144222' 
DISL,ioos:station:DISL:MBLA:1,2007-08-03T08:00:00Z,30.4367,-88.0117,14.2,5.3,40.0,99.0,'11111222,11111222,11144222' 
DISL,ioos:station:DISL:MBLA:1,2007-08-03T08:30:00Z,30.4367,-88.0117,14.2,5.0,52.0,99.0,'11111222,11111222,11144222' 
DISL,ioos:station:DISL:MBLA:1,2007-08-03T09:00:00Z,30.4367,-88.0117,14.2,5.9,48.0,99.0,'11111222,11111222,11144222' 
DISL,ioos:station:DISL:MBLA:1,2007-08-03T09:30:00Z,30.4367,-88.0117,14.2,6.2,42.0,99.0,'11111222,11111222,11144222' 
DISL,ioos:station:DISL:MBLA:1,2007-08-03T10:00:00Z,30.4367,-88.0117,14.2,6.7,32.0,99.0,'11111222,11111222,11144222' 
DISL,ioos:station:DISL:MBLA:1,2007-08-03T10:30:00Z,30.4367,-88.0117,14.2,6.3,35.0,99.0,'11111222,11111222,11144222' 
DISL,ioos:station:DISL:MBLA:1,2007-08-03T11:00:00Z,30.4367,-88.0117,14.2,7.0,28.0,99.0,'11111222,11111222,11144222' 
DISL,ioos:station:DISL:MBLA:1,2007-08-03T11:30:00Z,30.4367,-88.0117,14.2,7.3,29.0,99.0,'11111222,11111222,11144222' 
DISL,ioos:station:DISL:MBLA:1,2007-08-03T12:00:00Z,30.4367,-88.0117,14.2,7.4,18.0,99.0,'11111222,11111222,11144222' 
DISL,ioos:station:DISL:MBLA:1,2007-08-03T12:30:00Z,30.4367,-88.0117,14.2,7.6,27.0,99.0,'11111222,11111222,11144222' 
DISL,ioos:station:DISL:MBLA:1,2007-08-03T13:00:00Z,30.4367,-88.0117,14.2,7.8,22.0,99.0,'11111222,11111222,11144222' 
DISL,ioos:station:DISL:MBLA:1,2007-08-03T13:30:00Z,30.4367,-88.0117,14.2,6.7,28.0,99.0,'11111222,11111222,11144222' 
DISL,ioos:station:DISL:MBLA:1,2007-08-03T14:00:00Z,30.4367,-88.0117,14.2,5.9,28.0,99.0,'11111222,11111222,11144222' 
DISL,ioos:station:DISL:MBLA:1,2007-08-03T14:30:00Z,30.4367,-88.0117,14.2,6.2,36.0,99.0,'11111222,11111222,11144222' 
DISL,ioos:station:DISL:MBLA:1,2007-08-03T15:00:00Z,30.4367,-88.0117,14.2,5.0,30.0,99.0,'11111222,11111222,11144222' 
DISL,ioos:station:DISL:MBLA:1,2007-08-03T15:30:00Z,30.4367,-88.0117,14.2,4.3,17.0,99.0,'11111222,11111222,11144222' 
DISL,ioos:station:DISL:MBLA:1,2007-08-03T16:00:00Z,30.4367,-88.0117,14.2,4.2,10.0,99.0,'11111222,11111222,11144222' 
DISL,ioos:station:DISL:MBLA:1,2007-08-03T16:30:00Z,30.4367,-88.0117,14.2,4.2,2.0,99.0,'11111222,11111222,11144222' 
DISL,ioos:station:DISL:MBLA:1,2007-08-03T17:00:00Z,30.4367,-88.0117,14.2,4.3,2.0,99.0,'11111222,11111222,11144222' 
DISL,ioos:station:DISL:MBLA:1,2007-08-03T17:30:00Z,30.4367,-88.0117,14.2,3.4,352.0,99.0,'11111222,11111222,11144222' 
DISL,ioos:station:DISL:MBLA:1,2007-08-03T18:00:00Z,30.4367,-88.0117,14.2,2.7,353.0,99.0,'11111222,11111222,11144222' 
DISL,ioos:station:DISL:MBLA:1,2007-08-03T18:30:00Z,30.4367,-88.0117,14.2,2.6,337.0,99.0,'11111222,11111222,11144222' 
DISL,ioos:station:DISL:MBLA:1,2007-08-03T19:00:00Z,30.4367,-88.0117,14.2,2.9,20.0,99.0,'11111222,11111222,11144222' 
DISL,ioos:station:DISL:MBLA:1,2007-08-03T19:30:00Z,30.4367,-88.0117,14.2,2.0,353.0,99.0,'11111222,11111222,11144222' 
DISL,ioos:station:DISL:MBLA:1,2007-08-03T20:00:00Z,30.4367,-88.0117,14.2,4.9,83.0,99.0,'11111222,11111222,11144222' 
DISL,ioos:station:DISL:MBLA:1,2007-08-03T20:30:00Z,30.4367,-88.0117,14.2,3.9,200.0,99.0,'11111222,11111222,11144222' 
DISL,ioos:station:DISL:MBLA:1,2007-08-03T21:00:00Z,30.4367,-88.0117,14.2,2.7,201.0,99.0,'11111222,11111222,11144222' 
DISL,ioos:station:DISL:MBLA:1,2007-08-03T21:30:00Z,30.4367,-88.0117,14.2,5.6,197.0,99.0,'11111222,11111222,11144222' 
DISL,ioos:station:DISL:MBLA:1,2007-08-03T22:00:00Z,30.4367,-88.0117,14.2,5.7,195.0,99.0,'11111222,11111222,11144222' 
DISL,ioos:station:DISL:MBLA:1,2007-08-03T22:30:00Z,30.4367,-88.0117,14.2,5.8,190.0,99.0,'11111222,11111222,11144222' 
DISL,ioos:station:DISL:MBLA:1,2007-08-03T23:00:00Z,30.4367,-88.0117,14.2,6.3,184.0,99.0,'11111222,11111222,11144222' 
DISL,ioos:station:DISL:MBLA:1,2007-08-03T23:30:00Z,30.4367,-88.0117,14.2,5.2,198.0,99.0,'11111222,11111222,11144222' 
DISL,ioos:station:DISL:MBLA:1,2007-08-04T00:00:00Z,30.4367,-88.0117,14.2,4.9,193.0,99.0,'11111222,11111222,11144222' 
DISL,ioos:station:DISL:MBLA:1,2007-08-04T00:30:00Z,30.4367,-88.0117,14.2,4.8,199.0,99.0,'11111222,11111222,11144222' 
DISL,ioos:station:DISL:MBLA:1,2007-08-04T01:00:00Z,30.4367,-88.0117,14.2,4.8,214.0,99.0,'11111222,11111222,11144222' 
DISL,ioos:station:DISL:MBLA:1,2007-08-04T01:30:00Z,30.4367,-88.0117,14.2,3.5,216.0,99.0,'11111222,11111222,11144222' 
DISL,ioos:station:DISL:MBLA:1,2007-08-04T02:00:00Z,30.4367,-88.0117,14.2,4.3,195.0,99.0,'11111222,11111222,11144222' 
DISL,ioos:station:DISL:MBLA:1,2007-08-04T02:30:00Z,30.4367,-88.0117,14.2,3.4,209.0,99.0,'11111222,11111222,11144222' 
DISL,ioos:station:DISL:MBLA:1,2007-08-04T03:00:00Z,30.4367,-88.0117,14.2,3.0,209.0,99.0,'11111222,11111222,11144222' 
DISL,ioos:station:DISL:MBLA:1,2007-08-04T03:30:00Z,30.4367,-88.0117,14.2,2.7,212.0,99.0,'11111222,11111222,11144222' 
DISL,ioos:station:DISL:MBLA:1,2007-08-04T04:00:00Z,30.4367,-88.0117,14.2,3.8,227.0,99.0,'11111222,11111222,11144222' 
DISL,ioos:station:DISL:MBLA:1,2007-08-04T04:30:00Z,30.4367,-88.0117,14.2,3.2,228.0,99.0,'11111222,11111222,11144222' 
DISL,ioos:station:DISL:MBLA:1,2007-08-04T05:00:00Z,30.4367,-88.0117,14.2,2.7,210.0,99.0,'11111222,11111222,11144222' 
DISL,ioos:station:DISL:MBLA:1,2007-08-04T05:30:00Z,30.4367,-88.0117,14.2,2.8,192.0,99.0,'11111222,11111222,11144222' 
DISL,ioos:station:DISL:MBLA:1,2007-08-04T06:00:00Z,30.4367,-88.0117,14.2,2.7,198.0,99.0,'11111222,11111222,11144222' 
DISL,ioos:station:DISL:MBLA:1,2007-08-04T06:30:00Z,30.4367,-88.0117,14.2,2.9,201.0,99.0,'11111222,11111222,11144222' 
DISL,ioos:station:DISL:MBLA:1,2007-08-04T07:00:00Z,30.4367,-88.0117,14.2,2.7,192.0,99.0,'11111222,11111222,11144222' 
DISL,ioos:station:DISL:MBLA:1,2007-08-04T07:30:00Z,30.4367,-88.0117,14.2,3.2,215.0,99.0,'11111222,11111222,11144222' 
DISL,ioos:station:DISL:MBLA:1,2007-08-04T08:00:00Z,30.4367,-88.0117,14.2,3.7,220.0,99.0,'11111222,11111222,11144222' 
DISL,ioos:station:DISL:MBLA:1,2007-08-04T08:30:00Z,30.4367,-88.0117,14.2,3.1,216.0,99.0,'11111222,11111222,11144222' 
DISL,ioos:station:DISL:MBLA:1,2007-08-04T09:00:00Z,30.4367,-88.0117,14.2,2.9,241.0,99.0,'11111222,11111222,11144222' 
DISL,ioos:station:DISL:MBLA:1,2007-08-04T09:30:00Z,30.4367,-88.0117,14.2,2.9,241.0,99.0,'11111222,11111222,11144222' 
DISL,ioos:station:DISL:MBLA:1,2007-08-04T10:00:00Z,30.4367,-88.0117,14.2,2.5,259.0,99.0,'11111222,11111222,11144222' 
DISL,ioos:station:DISL:MBLA:1,2007-08-04T10:30:00Z,30.4367,-88.0117,14.2,2.7,286.0,99.0,'11111222,11111222,11144222' 
DISL,ioos:station:DISL:MBLA:1,2007-08-04T11:00:00Z,30.4367,-88.0117,14.2,3.1,313.0,99.0,'11111222,11111222,11144222' 
DISL,ioos:station:DISL:MBLA:1,2007-08-04T11:30:00Z,30.4367,-88.0117,14.2,2.7,311.0,99.0,'11111222,11111222,11144222' 
DISL,ioos:station:DISL:MBLA:1,2007-08-04T12:00:00Z,30.4367,-88.0117,14.2,2.9,317.0,99.0,'11111222,11111222,11144222' 
DISL,ioos:station:DISL:MBLA:1,2007-08-04T12:30:00Z,30.4367,-88.0117,14.2,3.3,319.0,99.0,'11111222,11111222,11144222' 
DISL,ioos:station:DISL:MBLA:1,2007-08-04T13:00:00Z,30.4367,-88.0117,14.2,2.8,328.0,99.0,'11111222,11111222,11144222' 
DISL,ioos:station:DISL:MBLA:1,2007-08-04T13:30:00Z,30.4367,-88.0117,14.2,3.1,340.0,99.0,'11111222,11111222,11144222' 
DISL,ioos:station:DISL:MBLA:1,2007-08-04T14:00:00Z,30.4367,-88.0117,14.2,2.8,354.0,99.0,'11111222,11111222,11144222' 
DISL,ioos:station:DISL:MBLA:1,2007-08-04T14:30:00Z,30.4367,-88.0117,14.2,2.1,354.0,99.0,'11111222,11111222,11144222' 
DISL,ioos:station:DISL:MBLA:1,2007-08-04T15:00:00Z,30.4367,-88.0117,14.2,3.1,7.0,99.0,'11111222,11111222,11144222' 
DISL,ioos:station:DISL:MBLA:1,2007-08-04T15:30:00Z,30.4367,-88.0117,14.2,1.9,37.0,99.0,'11111222,11111222,11144222' 
DISL,ioos:station:DISL:MBLA:1,2007-08-04T16:00:00Z,30.4367,-88.0117,14.2,1.3,145.0,99.0,'11111222,11111222,11144222' 
DISL,ioos:station:DISL:MBLA:1,2007-08-04T16:30:00Z,30.4367,-88.0117,14.2,1.6,173.0,99.0,'11111222,11111222,11144222' 
DISL,ioos:station:DISL:MBLA:1,2007-08-04T17:00:00Z,30.4367,-88.0117,14.2,2.2,175.0,99.0,'11111222,11111222,11144222' 
DISL,ioos:station:DISL:MBLA:1,2007-08-04T17:30:00Z,30.4367,-88.0117,14.2,3.6,176.0,99.0,'11111222,11111222,11144222' 
DISL,ioos:station:DISL:MBLA:1,2007-08-04T18:00:00Z,30.4367,-88.0117,14.2,3.9,183.0,99.0,'11111222,11111222,11144222' 
DISL,ioos:station:DISL:MBLA:1,2007-08-04T18:30:00Z,30.4367,-88.0117,14.2,4.4,192.0,99.0,'11111222,11111222,11144222' 
DISL,ioos:station:DISL:MBLA:1,2007-08-04T19:00:00Z,30.4367,-88.0117,14.2,5.1,189.0,99.0,'11111222,11111222,11144222' 
DISL,ioos:station:DISL:MBLA:1,2007-08-04T19:30:00Z,30.4367,-88.0117,14.2,5.1,182.0,99.0,'11111222,11111222,11144222' 
DISL,ioos:station:DISL:MBLA:1,2007-08-04T20:00:00Z,30.4367,-88.0117,14.2,5.1,191.0,99.0,'11111222,11111222,11144222' 
DISL,ioos:station:DISL:MBLA:1,2007-08-04T20:30:00Z,30.4367,-88.0117,14.2,5.4,194.0,99.0,'11111222,11111222,11144222' 
DISL,ioos:station:DISL:MBLA:1,2007-08-04T21:00:00Z,30.4367,-88.0117,14.2,6.2,193.0,99.0,'11111222,11111222,11144222' 
DISL,ioos:station:DISL:MBLA:1,2007-08-04T21:30:00Z,30.4367,-88.0117,14.2,6.0,191.0,99.0,'11111222,11111222,11144222' 
DISL,ioos:station:DISL:MBLA:1,2007-08-04T22:00:00Z,30.4367,-88.0117,14.2,5.6,199.0,99.0,'11111222,11111222,11144222' 
DISL,ioos:station:DISL:MBLA:1,2007-08-04T22:30:00Z,30.4367,-88.0117,14.2,4.9,198.0,99.0,'11111222,11111222,11144222' 
DISL,ioos:station:DISL:MBLA:1,2007-08-04T23:00:00Z,30.4367,-88.0117,14.2,5.2,198.0,99.0,'11111222,11111222,11144222' 
DISL,ioos:station:DISL:MBLA:1,2007-08-04T23:30:00Z,30.4367,-88.0117,14.2,4.4,199.0,99.0,'11111222,11111222,11144222' 
DISL,ioos:station:DISL:MBLA:1,2007-08-05T00:00:00Z,30.4367,-88.0117,14.2,2.7,202.0,99.0,'11111222,11111222,11144222' 
DISL,ioos:station:DISL:MBLA:1,2007-08-05T00:30:00Z,30.4367,-88.0117,14.2,2.4,191.0,99.0,'11111222,11111222,11144222' 
DISL,ioos:station:DISL:MBLA:1,2007-08-05T01:00:00Z,30.4367,-88.0117,14.2,2.7,192.0,99.0,'11111222,11111222,11144222' 
DISL,ioos:station:DISL:MBLA:1,2007-08-05T01:30:00Z,30.4367,-88.0117,14.2,2.2,207.0,99.0,'11111222,11111222,11144222' 
DISL,ioos:station:DISL:MBLA:1,2007-08-05T02:00:00Z,30.4367,-88.0117,14.2,2.8,208.0,99.0,'11111222,11111222,11144222' 
DISL,ioos:station:DISL:MBLA:1,2007-08-05T02:30:00Z,30.4367,-88.0117,14.2,4.2,185.0,99.0,'11111222,11111222,11144222' 
DISL,ioos:station:DISL:MBLA:1,2007-08-05T03:00:00Z,30.4367,-88.0117,14.2,4.4,194.0,99.0,'11111222,11111222,11144222' 
DISL,ioos:station:DISL:MBLA:1,2007-08-05T03:30:00Z,30.4367,-88.0117,14.2,3.6,193.0,99.0,'11111222,11111222,11144222' 
DISL,ioos:station:DISL:MBLA:1,2007-08-05T04:00:00Z,30.4367,-88.0117,14.2,4.1,196.0,99.0,'11111222,11111222,11144222' 
DISL,ioos:station:DISL:MBLA:1,2007-08-05T04:30:00Z,30.4367,-88.0117,14.2,4.2,205.0,99.0,'11111222,11111222,11144222' 
DISL,ioos:station:DISL:MBLA:1,2007-08-05T05:00:00Z,30.4367,-88.0117,14.2,3.3,227.0,99.0,'11111222,11111222,11144222' 